Flag for Germany Weather past 2 weeks in Riesa, Saxony, Germany

Now
38 °F

Overcast.


Feels Like: 32 °F
Forecast: 33 / 39 °F
Wind: 8 mph from South

Location: Dresden-Klotzsche

Current Time: Jan 28, 2015 at 10:11:41 PM

Latest Report: Jan 28, 2015 at 9:00 PM


Visibility: 22 mi

Pressure: 29.47 "Hg

Humidity: 75%

Dew point: 31 °F

Location of RiesaLocation

Historic Weather in Riesa — Graph

°F

Riesa temperature yesterday

Maximum temperature yesterday: 37 °F (at 1:00 PM)
Minimum temperature yesterday: 33 °F (at 1:00 AM)
Average temperature yesterday: 35 °F

Past Weeks' High & Low Weather Summary

 TemperatureHumidityPressure
High53 °F (Jan 13, 11:00 PM)100% (Jan 22, 7:00 PM)30.34 "Hg (Jan 22, 7:00 PM)
Low29 °F (Jan 24, 12:00 PM)43% (Jan 13, 9:00 PM)29.47 "Hg (Jan 28, 9:00 PM)
Average35 °F87%30.00 "Hg
* Reported Jan 13 9:00 PM — Jan 28 9:00 PM, Riesa, Weather by CustomWeather, © 2014

Note: Actual official high and low records may vary slightly from our data, if they occured in-between our weather recording intervals... More about our weather records

Advertising

Riesa weather history for previous 24 hours

 ConditionsComfort  
Time TempWeatherWind HumidityBarometerVisibility
9:00 PM
Jan 28
38 °FOvercast.8 mph75%29.47 "Hg22 mi
8:00 PM38 °FOvercast.8 mph76%29.55 "Hg19 mi
6:00 PM38 °FOvercast.9 mph75%29.65 "Hg19 mi
5:00 PM38 °FOvercast.6 mph74%29.70 "Hg19 mi
3:00 PM39 °FOvercast.9 mph73%29.78 "Hg19 mi
2:00 PM40 °FOvercast.7 mph75%29.83 "Hg17 mi
1:00 PM39 °FOvercast.8 mph78%29.90 "Hg19 mi
12:00 PM38 °FOvercast.7 mph78%29.93 "Hg19 mi
11:00 AM38 °FOvercast.8 mph82%29.97 "Hg19 mi
9:00 AM35 °FLight rain. Low clouds.5 mph92%30.01 "Hg14 mi
8:00 AM35 °FOvercast.3 mph90%30.03 "Hg16 mi
7:00 AM35 °FOvercast.3 mph87%30.03 "Hg16 mi
6:00 AM34 °FOvercast.5 mph89%30.04 "Hg16 mi
5:00 AM35 °FOvercast.6 mph90%30.06 "Hg16 mi
3:00 AM35 °FOvercast.5 mph92%30.08 "Hg16 mi
2:00 AM35 °FLow clouds.5 mph94%30.07 "Hg16 mi
1:00 AM35 °FLow clouds.6 mph94%30.07 "Hg12 mi
12:00 AM35 °FOvercast.5 mph95%30.07 "Hg11 mi
11:00 PM
Jan 27
35 °FOvercast.6 mph95%30.07 "Hg11 mi
Weather by CustomWeather, © 2014

See weather overviewHow to use our weather pages